| time (UTC) | temp F | wind direction | speed knots | gust knots | rain 1hr in | rain 24hr in | rain mn in | humidity % | barometer mb |
| 20260506164421 | 57 | 114 | 1.7 | 9.6 | 0.00 | 0.00 | 0.00 | 68 | 949.9 |
| 20260506164324 | 57 | 118 | 3.5 | 9.6 | 0.00 | 0.00 | 0.00 | 69 | 949.9 |
| 20260506164032 | 57 | 97 | 1.7 | 9.6 | 0.00 | 0.00 | 0.00 | 69 | 949.8 |
| 20260506163421 | 57 | 141 | 0.9 | 9.6 | 0.00 | 0.00 | 0.00 | 71 | 949.8 |
| 20260506163325 | 56 | 214 | 2.6 | 9.6 | 0.00 | 0.00 | 0.00 | 71 | 949.9 |
| 20260506162921 | 56 | 86 | 2.6 | 8.7 | 0.00 | 0.00 | 0.00 | 72 | 949.8 |
| 20260506162823 | 56 | 76 | 1.7 | 7.8 | 0.00 | 0.00 | 0.00 | 71 | 949.8 |
| 20260506162421 | 56 | 200 | 0.0 | 5.2 | 0.00 | 0.00 | 0.00 | 73 | 949.8 |
| 20260506162324 | 56 | 117 | 0.9 | 6.1 | 0.00 | 0.00 | 0.00 | 73 | 949.9 |
| 20260506161921 | 56 | 107 | 0.9 | 6.1 | 0.00 | 0.00 | 0.00 | 73 | 949.9 |
| 20260506161823 | 55 | 147 | 0.9 | 6.1 | 0.00 | 0.00 | 0.00 | 72 | 949.9 |
| 20260506161421 | 56 | 125 | 4.3 | 6.1 | 0.00 | 0.00 | 0.00 | 74 | 949.9 |
| 20260506161323 | 55 | 86 | 4.3 | 6.1 | 0.00 | 0.00 | 0.00 | 74 | 949.9 |
| 20260506160921 | 55 | 133 | 0.9 | 8.7 | 0.00 | 0.00 | 0.00 | 73 | 950.0 |
| 20260506160823 | 55 | 158 | 1.7 | 8.7 | 0.00 | 0.00 | 0.00 | 73 | 950.0 |
| 20260506160420 | 55 | 94 | 1.7 | 12.2 | 0.00 | 0.00 | 0.00 | 73 | 950.0 |
| 20260506160323 | 55 | 121 | 1.7 | 12.2 | 0.00 | 0.00 | 0.00 | 72 | 950.0 |
| 20260506160031 | 56 | 111 | 6.1 | 12.2 | 0.00 | 0.00 | 0.00 | 73 | 949.9 |
| 20260506155420 | 55 | 107 | 1.7 | 11.3 | 0.00 | 0.00 | 0.00 | 76 | 950.0 |
| 20260506155323 | 55 | 76 | 2.6 | 11.3 | 0.00 | 0.00 | 0.00 | 77 | 950.0 |
| 20260506154921 | 55 | 102 | 6.1 | 11.3 | 0.00 | 0.00 | 0.00 | 76 | 950.1 |
| 20260506154823 | 55 | 116 | 7.8 | 11.3 | 0.00 | 0.00 | 0.00 | 77 | 950.0 |
| 20260506154421 | 55 | 140 | 4.3 | 10.4 | 0.00 | 0.00 | 0.00 | 78 | 950.1 |
| 20260506154322 | 55 | 135 | 5.2 | 10.4 | 0.00 | 0.00 | 0.00 | 78 | 950.1 |
| 20260506153920 | 54 | 110 | 4.3 | 8.7 | 0.00 | 0.00 | 0.00 | 82 | 950.1 |
| 20260506153822 | 54 | 149 | 4.3 | 8.7 | 0.00 | 0.00 | 0.00 | 81 | 950.2 |
| 20260506153420 | 54 | 79 | 1.7 | 5.2 | 0.00 | 0.00 | 0.00 | 82 | 950.2 |
| 20260506153323 | 54 | 123 | 0.0 | 5.2 | 0.00 | 0.00 | 0.00 | 82 | 950.3 |
| 20260506152920 | 53 | 116 | 1.7 | 5.2 | 0.00 | 0.00 | 0.00 | 81 | 950.3 |
| 20260506152822 | 53 | 116 | 1.7 | 5.2 | 0.00 | 0.00 | 0.00 | 80 | 950.3 |
| 20260506152419 | 54 | 128 | 2.6 | 5.2 | 0.00 | 0.00 | 0.00 | 80 | 950.3 |
| 20260506152322 | 54 | 137 | 1.7 | 4.3 | 0.00 | 0.00 | 0.00 | 80 | 950.3 |
| 20260506151919 | 54 | 152 | 0.0 | 4.3 | 0.00 | 0.00 | 0.00 | 80 | 950.3 |
| 20260506151822 | 54 | 149 | 0.0 | 5.2 | 0.00 | 0.00 | 0.00 | 80 | 950.4 |
| 20260506151420 | 54 | 110 | 1.7 | 12.2 | 0.00 | 0.00 | 0.00 | 78 | 950.4 |
| 20260506151322 | 54 | 138 | 1.7 | 12.2 | 0.00 | 0.00 | 0.00 | 77 | 950.4 |
| 20260506150920 | 54 | 99 | 6.1 | 12.2 | 0.00 | 0.00 | 0.00 | 78 | 950.4 |
| 20260506150822 | 54 | 102 | 7.8 | 14.8 | 0.00 | 0.00 | 0.00 | 78 | 950.4 |
| 20260506150419 | 55 | 90 | 7.0 | 14.8 | 0.00 | 0.00 | 0.00 | 76 | 950.3 |
| 20260506150322 | 55 | 99 | 7.0 | 14.8 | 0.00 | 0.00 | 0.00 | 75 | 950.3 |
| 20260506145920 | 55 | 104 | 6.1 | 14.8 | 0.00 | 0.00 | 0.00 | 75 | 950.2 |
| 20260506145822 | 55 | 92 | 5.2 | 12.2 | 0.00 | 0.00 | 0.00 | 74 | 950.2 |
| 20260506145419 | 55 | 97 | 5.2 | 12.2 | 0.00 | 0.00 | 0.00 | 74 | 950.3 |
| 20260506145323 | 55 | 102 | 6.1 | 13.0 | 0.00 | 0.00 | 0.00 | 76 | 950.3 |
| 20260506144919 | 56 | 102 | 7.0 | 13.0 | 0.00 | 0.00 | 0.00 | 75 | 950.3 |
| 20260506144822 | 56 | 99 | 7.8 | 13.0 | 0.00 | 0.00 | 0.00 | 75 | 950.2 |
| 20260506144530 | 56 | 125 | 7.8 | 15.6 | 0.00 | 0.00 | 0.00 | 77 | 950.3 |
| 20260506143919 | 55 | 80 | 8.7 | 15.6 | 0.00 | 0.00 | 0.00 | 76 | 950.3 |
| 20260506143822 | 55 | 106 | 11.3 | 15.6 | 0.00 | 0.00 | 0.00 | 74 | 950.4 |
| 20260506143529 | 56 | 93 | 11.3 | 14.8 | 0.00 | 0.00 | 0.00 | 72 | 950.3 |
| 20260506143029 | 57 | 94 | 9.6 | 14.8 | 0.00 | 0.00 | 0.00 | 75 | 950.4 |
| 20260506142529 | 56 | 71 | 6.1 | 10.4 | 0.00 | 0.00 | 0.00 | 75 | 950.4 |
| 20260506141919 | 56 | 134 | 3.5 | 11.3 | 0.00 | 0.00 | 0.00 | 74 | 950.4 |
| 20260506141821 | 56 | 110 | 3.5 | 11.3 | 0.00 | 0.00 | 0.00 | 75 | 950.5 |
| 20260506141418 | 56 | 94 | 6.1 | 11.3 | 0.00 | 0.00 | 0.00 | 73 | 950.4 |
| 20260506141321 | 56 | 109 | 7.0 | 11.3 | 0.00 | 0.00 | 0.00 | 73 | 950.4 |
| 20260506140918 | 56 | 116 | 6.1 | 11.3 | 0.00 | 0.01 | 0.00 | 74 | 950.5 |
| 20260506140821 | 56 | 86 | 7.8 | 11.3 | 0.00 | 0.02 | 0.00 | 73 | 950.4 |
| 20260506140419 | 56 | 90 | 3.5 | 10.4 | 0.00 | 0.02 | 0.00 | 73 | 950.5 |
| 20260506140320 | 56 | 117 | 2.6 | 10.4 | 0.00 | 0.02 | 0.00 | 73 | 950.5 |
| 20260506135918 | 57 | 107 | 6.1 | 10.4 | 0.00 | 0.03 | 0.00 | 71 | 950.6 |
| 20260506135820 | 57 | 102 | 4.3 | 10.4 | 0.00 | 0.04 | 0.00 | 73 | 950.6 |
| 20260506135418 | 57 | 85 | 7.0 | 10.4 | 0.00 | 0.04 | 0.00 | 75 | 950.7 |
| 20260506135320 | 57 | 97 | 5.2 | 9.6 | 0.00 | 0.04 | 0.00 | 74 | 950.6 |
| 20260506134917 | 56 | 117 | 4.3 | 9.6 | 0.00 | 0.06 | 0.00 | 74 | 950.7 |
| 20260506134821 | 55 | 106 | 4.3 | 9.6 | 0.00 | 0.06 | 0.00 | 75 | 950.6 |
| 20260506134418 | 55 | 100 | 4.3 | 9.6 | 0.00 | 0.09 | 0.00 | 74 | 950.6 |
| 20260506134320 | 55 | 142 | 3.5 | 9.6 | 0.00 | 0.09 | 0.00 | 74 | 950.7 |
| 20260506133918 | 55 | 127 | 4.3 | 9.6 | 0.00 | 0.09 | 0.00 | 76 | 950.6 |
| 20260506133820 | 55 | 96 | 6.1 | 9.6 | 0.00 | 0.09 | 0.00 | 75 | 950.7 |
| 20260506133418 | 55 | 106 | 4.3 | 8.7 | 0.00 | 0.09 | 0.00 | 74 | 950.6 |
| 20260506133320 | 54 | 110 | 3.5 | 8.7 | 0.00 | 0.09 | 0.00 | 73 | 950.6 |
| 20260506132917 | 54 | 147 | 3.5 | 8.7 | 0.00 | 0.09 | 0.00 | 73 | 950.6 |
| 20260506132820 | 54 | 124 | 2.6 | 8.7 | 0.00 | 0.09 | 0.00 | 75 | 950.6 |
| 20260506132418 | 54 | 110 | 3.5 | 9.6 | 0.00 | 0.09 | 0.00 | 73 | 950.7 |
| 20260506132320 | 54 | 85 | 3.5 | 9.6 | 0.00 | 0.09 | 0.00 | 73 | 950.6 |
| 20260506132028 | 54 | 94 | 4.3 | 10.4 | 0.00 | 0.09 | 0.00 | 73 | 950.7 |
| 20260506131417 | 55 | 137 | 3.5 | 10.4 | 0.00 | 0.09 | 0.00 | 75 | 950.6 |
| 20260506131320 | 55 | 97 | 4.3 | 10.4 | 0.00 | 0.09 | 0.00 | 74 | 950.6 |
| 20260506130917 | 55 | 96 | 5.2 | 9.6 | 0.00 | 0.09 | 0.00 | 75 | 950.6 |
| 20260506130820 | 55 | 123 | 5.2 | 9.6 | 0.00 | 0.09 | 0.00 | 74 | 950.6 |
| 20260506130416 | 55 | 107 | 3.5 | 6.1 | 0.00 | 0.09 | 0.00 | 76 | 950.6 |
| 20260506130319 | 55 | 110 | 2.6 | 6.1 | 0.00 | 0.09 | 0.00 | 75 | 950.5 |
| 20260506125915 | 55 | 117 | 1.7 | 8.7 | 0.00 | 0.09 | 0.00 | 75 | 950.5 |
| 20260506125819 | 55 | 106 | 1.7 | 8.7 | 0.00 | 0.09 | 0.00 | 74 | 950.5 |
| 20260506125417 | 55 | 147 | 4.3 | 8.7 | 0.00 | 0.09 | 0.00 | 73 | 950.5 |
| 20260506125319 | 55 | 106 | 4.3 | 8.7 | 0.00 | 0.09 | 0.00 | 73 | 950.6 |
| 20260506124917 | 55 | 107 | 2.6 | 6.1 | 0.00 | 0.09 | 0.00 | 74 | 950.4 |
| 20260506124819 | 55 | 106 | 2.6 | 6.1 | 0.00 | 0.09 | 0.00 | 73 | 950.4 |
| 20260506124416 | 55 | 121 | 2.6 | 5.2 | 0.00 | 0.09 | 0.00 | 73 | 950.4 |
| 20260506124319 | 55 | 124 | 2.6 | 5.2 | 0.00 | 0.09 | 0.00 | 75 | 950.4 |
| 20260506123916 | 55 | 111 | 0.9 | 6.1 | 0.00 | 0.09 | 0.00 | 75 | 950.4 |
| 20260506123819 | 55 | 145 | 1.7 | 6.1 | 0.00 | 0.09 | 0.00 | 72 | 950.5 |
| 20260506123416 | 55 | 140 | 3.5 | 6.1 | 0.00 | 0.09 | 0.00 | 73 | 950.5 |
| 20260506123319 | 55 | 125 | 3.5 | 6.1 | 0.00 | 0.09 | 0.00 | 73 | 950.5 |
| 20260506122916 | 55 | 131 | 1.7 | 6.1 | 0.00 | 0.09 | 0.00 | 74 | 950.4 |
| 20260506122819 | 55 | 138 | 0.9 | 6.1 | 0.00 | 0.09 | 0.00 | 72 | 950.4 |
| 20260506122416 | 55 | 109 | 3.5 | 6.1 | 0.00 | 0.09 | 0.00 | 73 | 950.4 |
| 20260506122319 | 55 | 138 | 3.5 | 6.1 | 0.00 | 0.09 | 0.00 | 73 | 950.5 |
| 20260506121915 | 55 | 94 | 3.5 | 5.2 | 0.00 | 0.09 | 0.00 | 73 | 950.4 |
| 20260506121819 | 55 | 86 | 2.6 | 5.2 | 0.00 | 0.09 | 0.00 | 72 | 950.4 |
| 20260506121415 | 55 | 116 | 0.9 | 6.1 | 0.00 | 0.09 | 0.00 | 76 | 950.5 |
| 20260506121318 | 55 | 97 | 0.0 | 6.1 | 0.00 | 0.09 | 0.00 | 74 | 950.5 |
| 20260506121026 | 55 | 123 | 0.9 | 6.1 | 0.00 | 0.09 | 0.00 | 73 | 950.5 |
| 20260506120415 | 54 | 117 | 1.7 | 5.2 | 0.00 | 0.09 | 0.00 | 74 | 950.5 |
| 20260506120318 | 54 | 124 | 1.7 | 5.2 | 0.00 | 0.09 | 0.00 | 75 | 950.5 |
| 20260506115915 | 54 | 107 | 0.9 | 5.2 | 0.00 | 0.09 | 0.00 | 73 | 950.6 |
| 20260506115818 | 54 | 104 | 1.7 | 5.2 | 0.00 | 0.09 | 0.00 | 73 | 950.6 |
| 20260506115415 | 54 | 125 | 1.7 | 6.1 | 0.00 | 0.09 | 0.00 | 72 | 950.6 |
| 20260506115318 | 54 | 152 | 0.9 | 6.1 | 0.00 | 0.09 | 0.00 | 74 | 950.6 |
| 20260506115026 | 54 | 116 | 1.7 | 9.6 | 0.00 | 0.09 | 0.00 | 75 | 950.6 |
| 20260506114415 | 54 | 123 | 5.2 | 9.6 | 0.00 | 0.09 | 0.00 | 74 | 950.7 |
| 20260506114317 | 54 | 114 | 6.1 | 9.6 | 0.00 | 0.09 | 0.00 | 72 | 950.6 |
| 20260506113915 | 54 | 124 | 2.6 | 6.1 | 0.00 | 0.09 | 0.00 | 75 | 950.6 |
| 20260506113818 | 54 | 100 | 3.5 | 6.1 | 0.00 | 0.09 | 0.00 | 74 | 950.7 |
| 20260506113415 | 54 | 140 | 4.3 | 7.8 | 0.00 | 0.09 | 0.00 | 73 | 950.6 |
| 20260506113317 | 54 | 134 | 2.6 | 7.8 | 0.00 | 0.09 | 0.00 | 74 | 950.7 |
| 20260506112915 | 54 | 89 | 2.6 | 7.8 | 0.00 | 0.09 | 0.00 | 76 | 950.7 |
| 20260506112817 | 54 | 114 | 3.5 | 7.8 | 0.00 | 0.09 | 0.00 | 75 | 950.7 |
| 20260506112415 | 54 | 124 | 1.7 | 4.3 | 0.00 | 0.09 | 0.00 | 73 | 950.6 |
| 20260506112317 | 54 | 99 | 1.7 | 5.2 | 0.00 | 0.09 | 0.00 | 75 | 950.6 |
| 20260506111914 | 53 | 113 | 2.6 | 5.2 | 0.00 | 0.09 | 0.00 | 75 | 950.6 |
| 20260506111817 | 53 | 154 | 2.6 | 5.2 | 0.00 | 0.09 | 0.00 | 74 | 950.6 |
| 20260506111414 | 53 | 114 | 2.6 | 6.1 | 0.00 | 0.09 | 0.00 | 74 | 950.6 |
| 20260506111317 | 53 | 135 | 1.7 | 6.1 | 0.00 | 0.09 | 0.00 | 76 | 950.7 |
| 20260506110914 | 53 | 104 | 3.5 | 6.1 | 0.00 | 0.09 | 0.00 | 77 | 950.7 |
| 20260506110817 | 53 | 102 | 3.5 | 6.1 | 0.00 | 0.09 | 0.00 | 78 | 950.7 |
| 20260506110414 | 53 | 113 | 1.7 | 4.3 | 0.00 | 0.09 | 0.00 | 78 | 950.7 |
| 20260506110317 | 53 | 107 | 0.9 | 4.3 | 0.00 | 0.09 | 0.00 | 77 | 950.7 |
| 20260506110025 | 53 | 89 | 2.6 | 5.2 | 0.00 | 0.10 | 0.00 | 77 | 950.7 |
| 20260506105414 | 53 | 82 | 3.5 | 6.1 | 0.00 | 0.10 | 0.00 | 76 | 950.8 |
| 20260506105316 | 53 | 99 | 3.5 | 6.1 | 0.00 | 0.10 | 0.00 | 76 | 950.7 |
| 20260506104914 | 53 | 100 | 5.2 | 6.1 | 0.00 | 0.10 | 0.00 | 77 | 950.8 |
| 20260506104817 | 53 | 80 | 3.5 | 6.1 | 0.00 | 0.10 | 0.00 | 76 | 950.7 |
| 20260506104414 | 53 | 102 | 3.5 | 7.8 | 0.00 | 0.11 | 0.00 | 77 | 950.7 |
| 20260506104316 | 53 | 103 | 3.5 | 7.8 | 0.00 | 0.11 | 0.00 | 77 | 950.8 |
| 20260506103913 | 52 | 87 | 3.5 | 8.7 | 0.00 | 0.11 | 0.00 | 77 | 950.7 |
| 20260506103817 | 52 | 94 | 3.5 | 8.7 | 0.00 | 0.11 | 0.00 | 75 | 950.7 |
| 20260506103413 | 53 | 102 | 3.5 | 8.7 | 0.00 | 0.11 | 0.00 | 78 | 950.6 |
| 20260506103316 | 53 | 106 | 5.2 | 8.7 | 0.00 | 0.11 | 0.00 | 78 | 950.7 |
| 20260506102913 | 52 | 90 | 1.7 | 5.2 | 0.00 | 0.11 | 0.00 | 78 | 950.7 |
| 20260506102816 | 52 | 127 | 1.7 | 5.2 | 0.00 | 0.11 | 0.00 | 79 | 950.7 |
| 20260506102413 | 52 | 134 | 2.6 | 5.2 | 0.00 | 0.11 | 0.00 | 79 | 950.7 |
| 20260506102315 | 52 | 131 | 1.7 | 5.2 | 0.00 | 0.11 | 0.00 | 80 | 950.7 |
| 20260506101913 | 51 | 131 | 2.6 | 3.5 | 0.00 | 0.11 | 0.00 | 78 | 950.8 |
| 20260506101815 | 51 | 125 | 2.6 | 3.5 | 0.00 | 0.11 | 0.00 | 79 | 950.7 |
| 20260506101413 | 51 | 137 | 1.7 | 4.3 | 0.00 | 0.11 | 0.00 | 80 | 950.8 |
| 20260506101316 | 51 | 138 | 0.9 | 4.3 | 0.00 | 0.11 | 0.00 | 81 | 950.8 |
| 20260506100913 | 51 | 140 | 1.7 | 7.8 | 0.00 | 0.11 | 0.00 | 82 | 950.8 |
| 20260506100816 | 51 | 109 | 1.7 | 7.8 | 0.00 | 0.11 | 0.00 | 81 | 950.8 |
| 20260506100524 | 50 | 104 | 2.6 | 7.8 | 0.00 | 0.11 | 0.00 | 81 | 950.8 |
| 20260506095913 | 50 | 133 | 3.5 | 8.7 | 0.00 | 0.12 | 0.00 | 81 | 950.9 |
| 20260506095815 | 50 | 107 | 4.3 | 8.7 | 0.00 | 0.13 | 0.00 | 82 | 950.8 |
| 20260506095413 | 50 | 111 | 3.5 | 9.6 | 0.00 | 0.14 | 0.00 | 81 | 950.8 |
| 20260506095316 | 50 | 100 | 5.2 | 9.6 | 0.00 | 0.14 | 0.00 | 81 | 950.8 |
| 20260506094913 | 50 | 96 | 6.1 | 9.6 | 0.00 | 0.14 | 0.00 | 80 | 950.8 |
| 20260506094816 | 50 | 99 | 6.1 | 9.6 | 0.00 | 0.14 | 0.00 | 81 | 950.7 |
| 20260506094412 | 51 | 144 | 3.5 | 6.1 | 0.00 | 0.18 | 0.00 | 81 | 950.7 |
| 20260506094315 | 51 | 99 | 2.6 | 6.1 | 0.00 | 0.18 | 0.00 | 80 | 950.7 |
| 20260506093913 | 51 | 117 | 1.7 | 8.7 | 0.00 | 0.19 | 0.00 | 81 | 950.7 |
| 20260506093815 | 51 | 134 | 1.7 | 8.7 | 0.00 | 0.19 | 0.00 | 81 | 950.7 |
| 20260506093413 | 51 | 111 | 1.7 | 8.7 | 0.00 | 0.19 | 0.00 | 80 | 950.7 |
| 20260506093315 | 51 | 131 | 2.6 | 8.7 | 0.00 | 0.19 | 0.00 | 81 | 950.7 |
| 20260506092912 | 51 | 109 | 3.5 | 6.1 | 0.00 | 0.19 | 0.00 | 81 | 950.6 |
| 20260506092814 | 51 | 97 | 3.5 | 6.1 | 0.00 | 0.19 | 0.00 | 81 | 950.7 |
| 20260506092412 | 50 | 100 | 3.5 | 4.3 | 0.00 | 0.19 | 0.00 | 81 | 950.6 |
| 20260506092315 | 50 | 103 | 2.6 | 4.3 | 0.00 | 0.19 | 0.00 | 81 | 950.6 |
| 20260506091912 | 50 | 107 | 2.6 | 4.3 | 0.00 | 0.19 | 0.00 | 83 | 950.5 |
| 20260506091814 | 50 | 92 | 1.7 | 3.5 | 0.00 | 0.19 | 0.00 | 84 | 950.5 |
| 20260506091412 | 50 | 93 | 1.7 | 3.5 | 0.00 | 0.19 | 0.00 | 83 | 950.5 |
| 20260506091314 | 50 | 93 | 1.7 | 3.5 | 0.00 | 0.19 | 0.00 | 83 | 950.5 |
| 20260506090912 | 50 | 97 | 0.9 | 3.5 | 0.00 | 0.19 | 0.00 | 82 | 950.5 |
| 20260506090815 | 51 | 97 | 1.7 | 3.5 | 0.00 | 0.19 | 0.00 | 82 | 950.6 |
| 20260506090409 | 51 | 90 | 1.7 | 2.6 | 0.00 | 0.19 | 0.00 | 82 | 950.6 |
| 20260506090315 | 51 | 83 | 1.7 | 2.6 | 0.00 | 0.20 | 0.00 | 83 | 950.6 |
| 20260506085903 | 51 | 120 | 0.9 | 2.6 | 0.00 | 0.20 | 0.00 | 82 | 950.5 |
| 20260506085814 | 51 | 120 | 0.9 | 2.6 | 0.00 | 0.21 | 0.00 | 82 | 950.5 |
| 20260506085402 | 50 | 90 | 0.9 | 2.6 | 0.00 | 0.23 | 0.00 | 84 | 950.4 |
| 20260506085314 | 50 | 85 | 0.9 | 2.6 | 0.00 | 0.23 | 0.00 | 84 | 950.4 |
| 20260506084902 | 50 | 109 | 0.9 | 1.7 | 0.00 | 0.23 | 0.00 | 84 | 950.5 |
| 20260506084813 | 50 | 121 | 0.0 | 0.9 | 0.00 | 0.24 | 0.00 | 84 | 950.5 |
| 20260506084402 | 50 | 330 | 0.0 | 0.9 | 0.00 | 0.24 | 0.00 | 85 | 950.4 |
| 20260506084314 | 50 | 330 | 0.0 | 0.9 | 0.00 | 0.25 | 0.00 | 84 | 950.4 |
| 20260506084022 | 50 | 330 | 0.0 | 0.9 | 0.00 | 0.26 | 0.00 | 85 | 950.4 |
| 20260506083402 | 50 | 330 | 0.0 | 1.7 | 0.00 | 0.26 | 0.00 | 85 | 950.4 |
| 20260506083314 | 50 | 330 | 0.0 | 1.7 | 0.00 | 0.26 | 0.00 | 85 | 950.4 |
| 20260506082903 | 50 | 330 | 0.9 | 1.7 | 0.00 | 0.26 | 0.00 | 85 | 950.4 |
| 20260506082814 | 50 | 330 | 0.9 | 1.7 | 0.00 | 0.26 | 0.00 | 85 | 950.4 |
| 20260506082400 | 50 | 248 | 0.9 | 5.2 | 0.00 | 0.26 | 0.00 | 86 | 950.5 |
| 20260506082314 | 50 | 248 | 0.9 | 5.2 | 0.00 | 0.26 | 0.00 | 87 | 950.5 |
| 20260506081853 | 50 | 323 | 1.7 | 5.2 | 0.00 | 0.26 | 0.00 | 86 | 950.4 |
| 20260506081813 | 50 | 323 | 2.6 | 5.2 | 0.00 | 0.26 | 0.00 | 87 | 950.4 |
| 20260506081345 | 50 | 266 | 0.0 | 1.7 | 0.00 | 0.26 | 0.00 | 88 | 950.3 |
| 20260506081313 | 50 | 265 | 0.9 | 1.7 | 0.00 | 0.26 | 0.00 | 88 | 950.3 |
| 20260506080845 | 49 | 265 | 0.0 | 0.9 | 0.00 | 0.26 | 0.00 | 90 | 950.3 |
| 20260506080813 | 49 | 265 | 0.0 | 0.9 | 0.00 | 0.26 | 0.00 | 90 | 950.3 |
| 20260506080342 | 49 | 265 | 0.0 | 0.9 | 0.00 | 0.26 | 0.00 | 89 | 950.3 |
| 20260506080313 | 49 | 265 | 0.0 | 0.9 | 0.00 | 0.26 | 0.00 | 90 | 950.3 |
| 20260506073521 | 47 | 265 | 0.9 | 1.7 | 0.00 | 0.26 | 0.00 | 92 | 950.4 |
| 20260506072812 | 47 | 265 | 0.9 | 1.7 | 0.00 | 0.26 | 0.00 | 92 | 950.4 |
| 20260506072520 | 47 | 265 | 0.9 | 1.7 | 0.00 | 0.26 | 0.00 | 92 | 950.3 |
| 20260506071812 | 47 | 265 | 0.0 | 0.9 | 0.00 | 0.26 | 0.00 | 93 | 950.3 |
| 20260506071312 | 47 | 266 | 0.0 | 0.9 | 0.00 | 0.26 | 0.00 | 93 | 950.3 |
| 20260506070812 | 47 | 266 | 0.0 | 0.9 | 0.00 | 0.26 | 0.00 | 94 | 950.3 |
| 20260506070311 | 47 | 268 | 0.0 | 2.6 | 0.00 | 0.26 | 0.00 | 95 | 950.3 |
| 20260506062311 | 46 | 128 | 0.0 | 0.9 | 0.00 | 0.26 | 0.00 | 95 | 950.2 |
| 20260506061811 | 46 | 128 | 0.0 | 0.0 | 0.00 | 0.26 | 0.00 | 94 | 950.1 |
| 20260506061310 | 46 | 128 | 0.0 | 0.0 | 0.00 | 0.26 | 0.00 | 94 | 950.1 |
| 20260506060811 | 46 | 128 | 0.0 | 0.0 | 0.00 | 0.26 | 0.00 | 94 | 950.1 |
| 20260506060519 | 46 | 128 | 0.0 | 0.9 | 0.00 | 0.26 | 0.00 | 94 | 950.1 |
| 20260506051309 | 46 | 128 | 0.0 | 1.7 | 0.00 | 0.26 | 0.00 | 93 | 949.7 |
| 20260506051017 | 46 | 151 | 0.0 | 0.9 | 0.00 | 0.26 | 0.00 | 94 | 949.7 |
| 20260506050309 | 45 | 151 | 0.9 | 0.9 | 0.00 | 0.26 | 0.00 | 94 | 949.7 |
| 20260506044809 | 45 | 155 | 0.0 | 0.9 | 0.00 | 0.26 | 0.00 | 95 | 949.7 |
| 20260506044309 | 45 | 157 | 0.0 | 0.0 | 0.00 | 0.26 | 0.00 | 95 | 949.6 |
| 20260506043809 | 45 | 157 | 0.0 | 0.0 | 0.00 | 0.26 | 0.00 | 95 | 949.7 |
| 20260506043309 | 44 | 157 | 0.0 | 0.9 | 0.00 | 0.26 | 0.00 | 95 | 949.6 |
| 20260506042808 | 44 | 86 | 0.0 | 1.7 | 0.00 | 0.26 | 0.00 | 95 | 949.6 |
| 20260506042308 | 44 | 86 | 0.0 | 1.7 | 0.00 | 0.26 | 0.00 | 95 | 949.6 |
| 20260506041808 | 44 | 89 | 0.9 | 1.7 | 0.00 | 0.26 | 0.00 | 95 | 949.7 |
| 20260506041308 | 44 | 166 | 0.0 | 0.0 | 0.00 | 0.26 | 0.00 | 95 | 949.6 |
| 20260506041017 | 44 | 166 | 0.0 | 0.0 | 0.00 | 0.26 | 0.00 | 95 | 949.6 |
| 20260506040308 | 44 | 166 | 0.0 | 0.0 | 0.00 | 0.26 | 0.00 | 95 | 949.7 |
| 20260506035808 | 44 | 166 | 0.0 | 0.0 | 0.00 | 0.26 | 0.00 | 95 | 949.6 |
| 20260506035516 | 44 | 166 | 0.0 | 0.0 | 0.00 | 0.26 | 0.00 | 95 | 949.6 |
| 20260506034807 | 44 | 166 | 0.0 | 0.0 | 0.00 | 0.26 | 0.00 | 95 | 949.8 |
| 20260506034307 | 44 | 206 | 0.0 | 0.0 | 0.00 | 0.26 | 0.00 | 94 | 949.8 |
| 20260506033808 | 44 | 206 | 0.0 | 0.9 | 0.00 | 0.26 | 0.00 | 94 | 949.8 |
| 20260506033515 | 44 | 207 | 0.0 | 0.9 | 0.00 | 0.26 | 0.00 | 94 | 949.8 |
| 20260506032807 | 44 | 207 | 0.0 | 0.9 | 0.00 | 0.26 | 0.00 | 94 | 949.8 |
| 20260506032307 | 44 | 151 | 0.0 | 0.0 | 0.00 | 0.26 | 0.00 | 94 | 949.8 |
| 20260506031807 | 44 | 151 | 0.0 | 0.0 | 0.00 | 0.26 | 0.00 | 94 | 949.8 |
| 20260506031516 | 44 | 151 | 0.0 | 0.0 | 0.00 | 0.26 | 0.00 | 94 | 949.8 |
| 20260506030807 | 44 | 149 | 0.0 | 0.0 | 0.00 | 0.26 | 0.00 | 94 | 949.8 |
| 20260506030307 | 44 | 149 | 0.0 | 0.0 | 0.00 | 0.26 | 0.00 | 94 | 949.7 |
| 20260506025807 | 44 | 149 | 0.0 | 0.9 | 0.00 | 0.26 | 0.00 | 94 | 949.7 |
| 20260506025307 | 44 | 151 | 0.0 | 0.9 | 0.00 | 0.26 | 0.00 | 94 | 949.8 |
| 20260506024807 | 44 | 149 | 0.0 | 0.9 | 0.00 | 0.26 | 0.00 | 93 | 949.8 |
| 20260506024306 | 44 | 188 | 0.0 | 0.0 | 0.00 | 0.26 | 0.00 | 92 | 949.8 |
| 20260506023806 | 44 | 188 | 0.0 | 0.0 | 0.00 | 0.26 | 0.00 | 92 | 949.7 |
| 20260506023514 | 45 | 188 | 0.0 | 0.0 | 0.00 | 0.26 | 0.00 | 93 | 949.7 |
| 20260506022806 | 45 | 188 | 0.0 | 0.0 | 0.00 | 0.26 | 0.00 | 93 | 949.6 |
| 20260506022307 | 45 | 188 | 0.0 | 0.0 | 0.00 | 0.26 | 0.00 | 93 | 949.6 |
| 20260506021805 | 45 | 124 | 0.0 | 0.0 | 0.00 | 0.26 | 0.00 | 93 | 949.7 |
| 20260506021306 | 45 | 124 | 0.0 | 0.0 | 0.00 | 0.26 | 0.00 | 93 | 949.7 |
| 20260506020804 | 45 | 124 | 0.0 | 0.0 | 0.00 | 0.26 | 0.00 | 93 | 949.7 |
| 20260506020304 | 45 | 124 | 0.0 | 0.0 | 0.00 | 0.26 | 0.00 | 92 | 949.8 |
| 20260506015757 | 45 | 124 | 0.0 | 0.0 | 0.00 | 0.26 | 0.00 | 92 | 949.8 |
| 20260506015249 | 45 | 124 | 0.0 | 0.0 | 0.00 | 0.26 | 0.00 | 92 | 949.8 |
| 20260506014950 | 44 | 124 | 0.0 | 0.0 | 0.00 | 0.26 | 0.00 | 92 | 949.8 |
| 20260506014233 | 45 | 124 | 0.0 | 0.0 | 0.00 | 0.26 | 0.00 | 92 | 949.8 |
| 20260506013728 | 45 | 124 | 0.0 | 0.9 | 0.00 | 0.26 | 0.00 | 91 | 949.8 |
| 20260506013220 | 45 | 124 | 0.0 | 0.9 | 0.00 | 0.26 | 0.00 | 90 | 949.8 |
| 20260506012720 | 45 | 124 | 0.0 | 0.0 | 0.00 | 0.26 | 0.00 | 91 | 949.7 |
| 20260506012217 | 45 | 124 | 0.0 | 0.0 | 0.00 | 0.26 | 0.00 | 91 | 949.8 |
| 20260506011926 | 45 | 124 | 0.0 | 0.0 | 0.00 | 0.26 | 0.00 | 90 | 949.9 |
| 20260506011210 | 45 | 124 | 0.0 | 0.0 | 0.00 | 0.26 | 0.00 | 90 | 950.0 |
| 20260506010708 | 45 | 124 | 0.0 | 0.9 | 0.00 | 0.26 | 0.00 | 90 | 950.0 |
| 20260506010416 | 45 | 124 | 0.0 | 2.6 | 0.00 | 0.26 | 0.00 | 89 | 950.1 |
| 20260506005708 | 46 | 124 | 0.9 | 2.6 | 0.00 | 0.26 | 0.00 | 88 | 950.1 |
| 20260506005206 | 46 | 110 | 0.9 | 3.5 | 0.00 | 0.26 | 0.00 | 87 | 950.1 |
| 20260506004706 | 47 | 100 | 1.7 | 3.5 | 0.00 | 0.26 | 0.00 | 86 | 950.1 |
| 20260506004206 | 47 | 116 | 1.7 | 3.5 | 0.00 | 0.26 | 0.00 | 86 | 950.1 |
| 20260506003705 | 47 | 124 | 2.6 | 3.5 | 0.00 | 0.26 | 0.00 | 86 | 950.3 |
| 20260506003205 | 46 | 131 | 1.7 | 3.5 | 0.00 | 0.26 | 0.00 | 86 | 950.2 |
| 20260506002705 | 46 | 144 | 1.7 | 3.5 | 0.00 | 0.26 | 0.00 | 87 | 950.2 |
| 20260506002205 | 46 | 135 | 0.0 | 3.5 | 0.00 | 0.26 | 0.00 | 88 | 950.2 |
| 20260506001913 | 45 | 114 | 0.9 | 3.5 | 0.00 | 0.26 | 0.00 | 89 | 950.3 |
| 20260506001205 | 45 | 141 | 1.7 | 2.6 | 0.00 | 0.26 | 0.00 | 90 | 950.3 |
| 20260506000705 | 44 | 110 | 0.0 | 0.9 | 0.00 | 0.26 | 0.00 | 91 | 950.3 |
| 20260506000205 | 44 | 110 | 0.0 | 0.9 | 0.00 | 0.26 | 0.00 | 90 | 950.3 |
| 20260505235705 | 45 | 110 | 0.0 | 0.9 | 0.00 | 0.26 | 0.00 | 90 | 950.4 |
| 20260505235205 | 45 | 110 | 0.0 | 0.9 | 0.00 | 0.26 | 0.00 | 90 | 950.3 |
| 20260505234704 | 45 | 110 | 0.0 | 0.9 | 0.00 | 0.26 | 0.00 | 90 | 950.5 |
| 20260505234204 | 45 | 110 | 0.0 | 0.0 | 0.00 | 0.26 | 0.00 | 90 | 950.5 |
| 20260505233912 | 45 | 110 | 0.0 | 0.9 | 0.00 | 0.26 | 0.00 | 89 | 950.5 |
| 20260505233217 | 45 | 110 | 0.0 | 0.9 | 0.00 | 0.26 | 0.00 | 89 | 950.6 |
| 20260505232913 | 45 | 110 | 0.0 | 0.9 | 0.00 | 0.26 | 0.00 | 89 | 950.5 |
| 20260505232204 | 46 | 110 | 0.0 | 0.0 | 0.00 | 0.26 | 0.00 | 88 | 950.5 |
| 20260505231704 | 46 | 110 | 0.0 | 0.0 | 0.00 | 0.26 | 0.00 | 87 | 950.4 |
| 20260505231412 | 46 | 110 | 0.0 | 0.9 | 0.00 | 0.26 | 0.00 | 87 | 950.4 |
| 20260505230703 | 47 | 110 | 0.0 | 1.7 | 0.00 | 0.26 | 0.00 | 87 | 950.4 |
| 20260505230203 | 47 | 110 | 0.0 | 2.6 | 0.00 | 0.26 | 0.00 | 86 | 950.3 |
| 20260505225704 | 47 | 121 | 0.9 | 2.6 | 0.00 | 0.26 | 0.00 | 86 | 950.4 |
| 20260505225201 | 47 | 123 | 0.0 | 0.0 | 0.00 | 0.26 | 0.00 | 87 | 950.4 |
| 20260505224701 | 47 | 123 | 0.0 | 0.9 | 0.00 | 0.26 | 0.00 | 86 | 950.6 |
| 20260505224201 | 47 | 123 | 0.0 | 0.9 | 0.00 | 0.26 | 0.00 | 85 | 950.6 |
| 20260505223701 | 47 | 123 | 0.0 | 0.9 | 0.00 | 0.26 | 0.00 | 85 | 950.6 |
| 20260505223202 | 47 | 123 | 0.0 | 5.2 | 0.00 | 0.26 | 0.00 | 85 | 950.6 |
| 20260505222701 | 48 | 121 | 2.6 | 5.2 | 0.00 | 0.26 | 0.00 | 85 | 950.5 |
| 20260505222201 | 47 | 103 | 1.7 | 6.1 | 0.00 | 0.26 | 0.00 | 86 | 950.7 |
| 20260505221701 | 48 | 103 | 0.0 | 6.1 | 0.00 | 0.26 | 0.00 | 85 | 950.7 |
| 20260505221200 | 48 | 100 | 2.6 | 5.2 | 0.00 | 0.26 | 0.00 | 85 | 950.6 |
| 20260505220909 | 48 | 124 | 1.7 | 5.2 | 0.00 | 0.26 | 0.00 | 85 | 950.5 |
| 20260505220200 | 48 | 92 | 2.6 | 5.2 | 0.00 | 0.26 | 0.00 | 85 | 950.6 |
| 20260505215701 | 48 | 159 | 1.7 | 7.8 | 0.00 | 0.26 | 0.26 | 85 | 950.7 |
| 20260505215409 | 48 | 102 | 3.5 | 7.8 | 0.00 | 0.26 | 0.26 | 85 | 950.7 |
| 20260505214700 | 48 | 124 | 1.7 | 4.3 | 0.00 | 0.26 | 0.26 | 85 | 950.7 |
| 20260505214200 | 48 | 125 | 0.9 | 4.3 | 0.00 | 0.26 | 0.26 | 86 | 950.6 |
| 20260505213700 | 48 | 109 | 0.9 | 3.5 | 0.00 | 0.26 | 0.26 | 86 | 950.7 |
| 20260505213408 | 48 | 94 | 0.9 | 2.6 | 0.00 | 0.26 | 0.26 | 86 | 950.7 |
| 20260505212700 | 48 | 137 | 0.9 | 3.5 | 0.00 | 0.26 | 0.26 | 86 | 950.7 |
| 20260505212200 | 48 | 147 | 0.9 | 3.5 | 0.00 | 0.26 | 0.26 | 86 | 950.7 |
| 20260505211700 | 48 | 131 | 0.9 | 2.6 | 0.00 | 0.26 | 0.26 | 87 | 950.8 |
| 20260505211408 | 48 | 138 | 1.7 | 2.6 | 0.00 | 0.26 | 0.26 | 87 | 950.8 |
| 20260505210700 | 47 | 133 | 1.7 | 2.6 | 0.00 | 0.26 | 0.26 | 88 | 950.7 |
| 20260505210407 | 47 | 134 | 1.7 | 2.6 | 0.00 | 0.26 | 0.26 | 88 | 950.7 |
| 20260505205700 | 47 | 103 | 0.0 | 1.7 | 0.00 | 0.26 | 0.26 | 88 | 950.7 |
| 20260505205159 | 47 | 103 | 0.0 | 0.0 | 0.00 | 0.26 | 0.26 | 89 | 950.8 |
| 20260505204907 | 47 | 103 | 0.0 | 0.0 | 0.00 | 0.26 | 0.26 | 89 | 950.7 |
| 20260505204159 | 47 | 103 | 0.0 | 0.0 | 0.00 | 0.26 | 0.26 | 89 | 950.7 |
| 20260505203658 | 47 | 103 | 0.0 | 0.0 | 0.00 | 0.26 | 0.26 | 88 | 950.6 |
| 20260505203159 | 47 | 103 | 0.0 | 0.0 | 0.00 | 0.26 | 0.26 | 87 | 950.6 |
| 20260505202702 | 47 | 103 | 0.0 | 0.0 | 0.00 | 0.26 | 0.26 | 86 | 950.6 |
| 20260505202158 | 47 | 103 | 0.0 | 0.0 | 0.00 | 0.26 | 0.26 | 86 | 950.6 |
| 20260505201659 | 47 | 103 | 0.0 | 2.6 | 0.00 | 0.26 | 0.26 | 85 | 950.5 |
| 20260505201158 | 47 | 103 | 0.0 | 3.5 | 0.00 | 0.26 | 0.26 | 85 | 950.5 |
| 20260505200658 | 47 | 99 | 0.9 | 3.5 | 0.00 | 0.26 | 0.26 | 84 | 950.4 |
| 20260505200158 | 48 | 99 | 0.9 | 6.1 | 0.00 | 0.26 | 0.26 | 84 | 950.3 |
| 20260505195658 | 48 | 113 | 2.6 | 6.1 | 0.00 | 0.26 | 0.26 | 84 | 950.2 |
| 20260505195406 | 48 | 97 | 2.6 | 5.2 | 0.00 | 0.26 | 0.26 | 84 | 950.2 |
| 20260505194658 | 48 | 124 | 0.9 | 3.5 | 0.00 | 0.26 | 0.26 | 84 | 950.2 |
| 20260505194406 | 48 | 135 | 0.9 | 2.6 | 0.00 | 0.26 | 0.26 | 84 | 950.1 |
| 20260505193658 | 48 | 166 | 0.9 | 3.5 | 0.00 | 0.26 | 0.26 | 83 | 950.2 |
| 20260505193157 | 48 | 145 | 0.0 | 3.5 | 0.00 | 0.26 | 0.26 | 83 | 950.1 |
| 20260505192657 | 48 | 183 | 0.9 | 3.5 | 0.00 | 0.26 | 0.26 | 83 | 950.0 |
| 20260505192157 | 48 | 131 | 1.7 | 2.6 | 0.00 | 0.26 | 0.26 | 83 | 950.0 |
| 20260505191657 | 49 | 131 | 1.7 | 3.5 | 0.00 | 0.26 | 0.26 | 83 | 950.0 |
| 20260505191156 | 49 | 121 | 0.0 | 6.1 | 0.00 | 0.26 | 0.26 | 83 | 950.0 |
| 20260505190657 | 49 | 104 | 1.7 | 6.1 | 0.00 | 0.26 | 0.26 | 82 | 949.9 |
| 20260505190405 | 49 | 111 | 3.5 | 8.7 | 0.00 | 0.26 | 0.26 | 82 | 949.9 |
| 20260505185657 | 49 | 113 | 4.3 | 8.7 | 0.00 | 0.26 | 0.26 | 81 | 950.0 |
| 20260505185156 | 49 | 104 | 3.5 | 7.8 | 0.00 | 0.26 | 0.26 | 81 | 949.9 |
| 20260505184657 | 49 | 113 | 3.5 | 5.2 | 0.00 | 0.26 | 0.26 | 83 | 949.8 |
| 20260505184157 | 49 | 100 | 3.5 | 4.3 | 0.00 | 0.26 | 0.26 | 84 | 949.8 |
| 20260505183656 | 49 | 107 | 1.7 | 3.5 | 0.00 | 0.26 | 0.26 | 84 | 949.8 |
| 20260505183156 | 49 | 106 | 0.9 | 2.6 | 0.00 | 0.26 | 0.26 | 85 | 949.6 |
| 20260505182656 | 49 | 145 | 0.9 | 3.5 | 0.00 | 0.26 | 0.26 | 85 | 949.7 |
| 20260505182156 | 49 | 106 | 0.0 | 4.3 | 0.00 | 0.26 | 0.26 | 84 | 949.7 |
| 20260505181904 | 50 | 96 | 2.6 | 5.2 | 0.00 | 0.26 | 0.26 | 82 | 949.6 |
| 20260505181156 | 50 | 120 | 3.5 | 6.1 | 0.00 | 0.26 | 0.26 | 81 | 949.6 |
| 20260505180655 | 50 | 113 | 3.5 | 8.7 | 0.00 | 0.26 | 0.26 | 81 | 949.5 |
| 20260505180155 | 50 | 113 | 3.5 | 9.6 | 0.00 | 0.26 | 0.26 | 80 | 949.6 |
| 20260505175655 | 51 | 103 | 6.1 | 13.0 | 0.00 | 0.26 | 0.26 | 79 | 949.5 |
| 20260505175155 | 51 | 104 | 6.1 | 13.0 | 0.00 | 0.26 | 0.26 | 78 | 949.6 |
| 20260505174903 | 52 | 93 | 7.0 | 11.3 | 0.00 | 0.26 | 0.26 | 77 | 949.6 |
| 20260505174155 | 52 | 118 | 5.2 | 10.4 | 0.00 | 0.26 | 0.26 | 78 | 949.6 |
| 20260505173655 | 52 | 97 | 5.2 | 9.6 | 0.00 | 0.26 | 0.26 | 79 | 949.6 |
| 20260505173155 | 52 | 114 | 3.5 | 8.7 | 0.00 | 0.26 | 0.26 | 77 | 949.6 |
| 20260505172903 | 52 | 104 | 4.3 | 8.7 | 0.00 | 0.26 | 0.26 | 79 | 949.7 |
| 20260505172154 | 53 | 104 | 3.5 | 8.7 | 0.00 | 0.26 | 0.26 | 78 | 949.5 |
| 20260505171904 | 53 | 87 | 5.2 | 8.7 | 0.00 | 0.26 | 0.26 | 78 | 949.6 |
| 20260505171147 | 53 | 117 | 5.2 | 8.7 | 0.00 | 0.26 | 0.26 | 77 | 949.6 |
| 20260505170642 | 53 | 90 | 5.2 | 9.6 | 0.00 | 0.26 | 0.26 | 78 | 949.6 |
| 20260505170144 | 53 | 128 | 3.5 | 9.6 | 0.00 | 0.26 | 0.26 | 78 | 949.6 |
| 20260505170140 | 53 | 93 | 3.5 | 9.6 | 0.00 | 0.26 | 0.26 | 78 | 949.6 |
| 20260505165642 | 53 | 94 | 6.1 | 9.6 | 0.00 | 0.26 | 0.26 | 78 | 949.7 |
| 20260505165637 | 53 | 104 | 6.1 | 9.6 | 0.00 | 0.26 | 0.26 | 78 | 949.7 |
| 20260505165138 | 53 | 94 | 3.5 | 6.1 | 0.00 | 0.26 | 0.26 | 78 | 949.8 |
| 20260505164636 | 53 | 106 | 1.7 | 5.2 | 0.00 | 0.26 | 0.26 | 76 | 949.8 |